{"data":{"norad_id":67474,"intl_designator":"2026-009A","name":"ALSAT-3A","alt_names":[],"object_type":"PAYLOAD","status":"ACTIVE","operator":null,"country":"ALG","launch_date":"2026-01-15","launch_site_code":"JSC","launch_vehicle":null,"mission":null,"orbit_class":"UNKNOWN","rcs_meters":null,"size_class":null,"mass_kg":null,"dimensions":null,"purposes":[],"wikipedia_slug":null,"has_3d_model":false,"image_url":null,"decayed_at":null,"tle_current":{"epoch":"2026-09-20T21:28:55.759584Z","epoch_age_seconds":62475,"freshness":"FRESH","line1":"1 67474U 26009A   26263.89508981  .00003467  00000+0  14975-3 0  9990","line2":"2 67474  97.4467 337.0838 0009165 132.9467 227.2540 15.23137913 37841","mean_motion":15.23137913,"eccentricity":0.0009165,"inclination_deg":97.4467,"raan_deg":337.0838,"arg_perigee_deg":132.9467,"mean_anomaly_deg":227.254,"bstar":0.00014975,"rev_number":3784,"period_min":94.541668729377,"perigee_km":490.08212127547,"apogee_km":502.68311573619,"semimajor_km":6874.5196185058,"source":"CELESTRAK","updated_at":"2026-09-21T09:00:16.668153Z"}}}